Terug naar catalogus

THOR ABLESTAR DEB

ActiefLEO
NORAD 13511·DEBRIS·🇺🇸 United States

Gelanceerd Jun 29, 1961 vanaf Cape Canaveral Space Force Station

Loading…

Volgende Passages (komende 24 uur)

TLE

VersSource: Space-Track

Epoch: Sep 13, 2026, 07:36 UTC

1 13511U 61015KU  26256.31715245  .00000092  00000-0  19289-3 0  9996
2 13511  65.8441   6.6060 0113477 134.3390 258.0601 13.67869289303158

Volg THOR ABLESTAR DEB in realtime met AllMySat

Download on the App Store